Ely, NV

4:27 AM PDT on May 27, 2017 (GMT -0700)
Ely

Weather History for KELY - March, 2013

Change the Weather History Date:

Friday, March 22, 2013

  Actual Average Record
Temperature  
Mean Temperature 26 °F 38 °F  
Max Temperature 40 °F 52 °F 72 °F (2004)
Min Temperature 12 °F 24 °F -10 °F (1952)
Degree Days  
Heating Degree Days 39 27  
Month to date heating degree days 552 651  
Since 1 July heating degree days 5771 5988  
Cooling Degree Days 0 0  
Month to date cooling degree days 0 0  
Year to date cooling degree days 0 0  
Moisture  
Dew Point 7 °F    
Average Humidity 51    
Maximum Humidity 76    
Minimum Humidity 25    
Precipitation  
Precipitation T in 0.03 in 0.41 in (1978)
Month to date precipitation 0.24 0.65  
Year to date precipitation 1.69 2.10  
Snow  
Snow 0.00 in 0.30 in 5.00 in (2009)
Month to date snowfall 3.1 5.9  
Since 1 July snowfall 58.5 40.8  
Snow Depth 0.00 in    
Sea Level Pressure  
Sea Level Pressure 29.94 in    
Wind  
Wind Speed 9 mph (NW)    
Max Wind Speed 23 mph    
Max Gust Speed 30 mph    
Visibility 10 miles    
Events      
T = Trace of Precipitation, MM = Missing Value Source: NWS Daily Summary

Daily Weather History Graph

Daily Weather History Graph

Search for Another Location

Airport or City:

Trip Planner

Search our weather history database for the weather conditions in past years. The results will help you decide how hot, cold, wet, or windy it might be!

Date:

Astronomy

Mar. 22, 2013 Rise Set
Actual Time 6:39 AM PDT 6:53 PM PDT
Civil Twilight 6:12 AM PDT 7:20 PM PDT
Nautical Twilight 5:41 AM PDT 7:51 PM PDT
Astronomical Twilight 5:09 AM PDT 8:23 PM PDT
Moon 2:26 PM PDT (3/22) 3:40 AM PDT (3/22)
Length of Visible Light 13h 08m
Length of Day
12h 14m
Waxing Gibbous, 78% of the Moon is Illuminated
Mar 22
Waxing Gibbous
Mar 27
Full
Apr 2
Last Quarter
Apr 10
New
Apr 18
First Quarter

Hourly Weather History & Observations

Time (PDT) Temp. Windchill Dew Point Humidity Pressure Visibility Wind Dir Wind Speed Gust Speed Precip Events Conditions
12:53 AM 25.0 °F 16.3 °F 10.0 °F 53% 29.93 in 10.0 mi WNW 8.1 mph - N/A   Clear
1:53 AM 25.0 °F 15.5 °F 9.0 °F 51% 29.91 in 10.0 mi WNW 9.2 mph - N/A   Clear
2:53 AM 17.1 °F - 8.1 °F 68% 29.93 in 10.0 mi Calm Calm - N/A   Clear
3:53 AM 16.0 °F 10.4 °F 7.0 °F 68% 29.92 in 10.0 mi SSE 3.5 mph - N/A   Clear
4:53 AM 16.0 °F - 7.0 °F 68% 29.91 in 10.0 mi Calm Calm - N/A   Clear
5:53 AM 12.9 °F 5.2 °F 6.1 °F 74% 29.93 in 10.0 mi South 4.6 mph - N/A   Clear
6:53 AM 14.0 °F 6.5 °F 7.0 °F 74% 29.93 in 10.0 mi South 4.6 mph - N/A   Clear
7:53 AM 25.0 °F - 12.0 °F 58% 29.89 in 10.0 mi Calm Calm - N/A   Clear
8:53 AM 33.1 °F 27.7 °F 6.1 °F 32% 29.87 in 10.0 mi Variable 5.8 mph - N/A   Clear
9:53 AM 35.1 °F 26.4 °F 5.0 °F 28% 29.88 in 10.0 mi NW 12.7 mph - 0.00 in   Clear
10:53 AM 37.0 °F 28.9 °F 5.0 °F 26% 29.88 in 10.0 mi NW 12.7 mph 23.0 mph 0.00 in   Clear
11:53 AM 37.0 °F 32.4 °F 7.0 °F 29% 29.90 in 10.0 mi Variable 5.8 mph 21.9 mph 0.00 in   Partly Cloudy
12:53 PM 39.0 °F 31.0 °F 7.0 °F 27% 29.90 in 10.0 mi NW 13.8 mph 23.0 mph N/A   Scattered Clouds
1:53 PM 37.9 °F 29.6 °F 7.0 °F 28% 29.89 in 10.0 mi West 13.8 mph 25.3 mph N/A   Scattered Clouds
2:53 PM 39.0 °F 32.3 °F 9.0 °F 29% 29.92 in 10.0 mi NW 10.4 mph 29.9 mph N/A   Partly Cloudy
3:53 PM 39.9 °F 31.4 °F 9.0 °F 28% 29.91 in 10.0 mi NW 16.1 mph 24.2 mph N/A   Mostly Cloudy
4:53 PM 37.0 °F 28.9 °F 8.1 °F 30% 29.93 in 10.0 mi North 12.7 mph 26.5 mph N/A   Clear
5:53 PM 33.1 °F 21.9 °F 10.0 °F 38% 30.00 in 10.0 mi NNW 18.4 mph 26.5 mph N/A   Partly Cloudy
6:53 PM 28.9 °F 19.2 °F 9.0 °F 43% 30.04 in 10.0 mi North 11.5 mph 18.4 mph N/A   Scattered Clouds
7:53 PM 27.0 °F 16.1 °F 6.1 °F 41% 30.04 in 10.0 mi North 12.7 mph - N/A   Mostly Cloudy
8:53 PM 26.1 °F 16.2 °F 5.0 °F 41% 30.01 in 10.0 mi North 10.4 mph - N/A   Mostly Cloudy
9:53 PM 26.1 °F 15.0 °F 5.0 °F 41% 30.03 in 10.0 mi North 12.7 mph - N/A   Overcast
10:53 PM 24.1 °F 13.1 °F 5.0 °F 44% 30.04 in 10.0 mi NW 11.5 mph - N/A   Mostly Cloudy
11:53 PM 21.0 °F 12.4 °F 6.1 °F 53% 30.06 in 10.0 mi WNW 6.9 mph - N/A   Mostly Cloudy